Location: Unspecified
(44.4377°N, 88.0525°W)
Time: 22:40:50
(UTC-05:00)

Resurs 1-4 Rocket - Visible Passes

Search period start: 25 October 2014 00:00
Search period end: 03 November 2014 23:00
Orbit: 801 x 814 km, 98.4° (Epoch: 24 October)

Date Brightness Start Highest point End Pass type
(mag) Time Alt. Az. Time Alt. Az. Time Alt. Az.
25 Oct 3.4 04:16:39 10° NNE 04:21:34 37° E 04:24:04 24° SE visible
25 Oct 2.8 05:56:41 10° N 06:01:19 31° WNW 06:05:09 14° WSW visible
26 Oct 4.2 03:52:47 10° NE 03:56:56 23° E 03:59:07 18° SE visible
26 Oct 2.2 05:31:57 10° N 05:37:04 50° WNW 05:40:12 22° SW visible
27 Oct 4.8 03:29:33 10° ENE 03:32:13 14° E 03:34:10 12° ESE visible
27 Oct 1.9 05:07:23 10° NNE 05:12:43 80° WNW 05:15:15 32° SSW visible
27 Oct 3.8 06:49:33 10° NNW 06:51:42 13° NW 06:53:52 10° W visible
28 Oct 2.4 04:43:00 10° NNE 04:48:17 64° ESE 04:50:18 37° SSE visible
28 Oct 3.4 06:23:57 10° NNW 06:27:38 20° WNW 06:31:19 10° WSW visible
29 Oct 3.3 04:18:48 10° NNE 04:23:46 39° E 04:25:21 32° SE visible
29 Oct 2.9 05:58:56 10° N 06:03:29 30° WNW 06:06:25 18° WSW visible
30 Oct 4.1 03:54:53 10° NE 03:59:09 24° E 04:00:24 22° ESE visible
30 Oct 2.3 05:34:10 10° N 05:39:14 47° WNW 05:41:28 30° SW visible
31 Oct 4.7 03:31:33 10° NE 03:34:27 15° E 03:35:26 14° E visible
31 Oct 1.9 05:09:35 10° N 05:14:54 76° WNW 05:16:31 46° SSW visible
31 Oct 3.9 06:51:58 10° NW 06:53:51 12° NW 06:55:43 10° WNW visible
01 Nov 2.3 04:45:10 10° NNE 04:50:28 68° ESE 04:51:33 53° SSE visible
01 Nov 3.4 06:26:14 10° NNW 06:29:47 19° WNW 06:32:37 13° W visible
02 Nov 3.2 03:20:57 10° NNE 03:25:57 41° E 03:26:35 39° ESE visible
02 Nov 2.9 05:01:10 10° N 05:05:38 28° WNW 05:07:40 22° W visible
03 Nov 4.0 02:57:00 10° NE 03:01:21 25° E 03:01:37 25° E visible
03 Nov 2.3 04:36:23 10° N 04:41:24 44° WNW 04:42:42 37° WSW visible
